contact:dominique.lefevre@mio.osupytheas.fr, maurice.libes@osupytheas.fr, didier.mallarino@osupytheas.fr
Project:EMSO http://www.emso-fr.org/EMSO-France
Depth: 2436.0 m
Title:EMSO Ligure Ouest : Data MII capteur AQUADOPP
Date,Latitude,Longitude,X_East,Y_North,Z_Up,Amplitude_X,Amplitude_Y,Amplitude_Z,Batterie,SoundSpeed,Heading,Pitch,Roll,Pressure,TIS,Speed,Direction
, degrees North, degrees East, m.s-1, m.s-1,m.s-1, 1, 1, 1, Volt, m.s-1, degree, degree, degree, dbar, degree_C, m.s-1, degree
2019-07-21T00:00:41,42.805,6.029,-0.02,0.024,-0.013,101.0,113.0,99.0,13.3,1505.3,328.2,-0.7,1.8,2470.179,13.33,0.031,320.2
2019-07-21T00:03:42,42.805,6.029,-0.004,0.016,-0.014,103.0,111.0,100.0,13.3,1505.3,326.5,-0.7,1.8,2470.199,13.33,0.016,346.0
2019-07-21T00:06:43,42.805,6.029,-0.019,0.0,-0.024,104.0,113.0,102.0,13.4,1505.3,326.2,-0.7,1.8,2470.211,13.33,0.019,270.0
2019-07-21T00:09:44,42.805,6.029,-0.009,0.014,0.011,103.0,112.0,101.0,13.4,1505.3,323.5,-0.7,1.9,2470.156,13.33,0.016,327.3
2019-07-21T00:12:45,42.805,6.029,-0.027,0.024,-0.031,104.0,114.0,100.0,13.3,1505.3,324.4,-0.7,1.8,2470.188,13.33,0.036,311.6
2019-07-21T00:15:46,42.805,6.029,0.009,0.012,0.015,105.0,112.0,101.0,13.4,1505.3,327.6,-0.7,1.8,2470.175,13.33,0.015,36.9
2019-07-21T00:18:47,42.805,6.029,-0.004,0.029,-0.021,104.0,112.0,101.0,13.4,1505.3,326.1,-0.7,1.9,2470.187,13.33,0.029,352.2
2019-07-21T00:21:48,42.805,6.029,-0.043,0.038,-0.023,103.0,112.0,100.0,13.4,1505.3,324.4,-0.7,1.8,2470.203,13.33,0.057,311.5
2019-07-21T00:24:49,42.805,6.029,0.002,0.02,0.022,103.0,114.0,99.0,13.3,1505.3,326.1,-0.7,1.8,2470.238,13.33,0.02,5.7
2019-07-21T00:27:50,42.805,6.029,-0.002,0.012,-0.018,103.0,112.0,99.0,13.4,1505.3,323.3,-0.7,1.9,2470.161,13.33,0.012,350.5
2019-07-21T00:30:51,42.805,6.029,-0.007,0.021,-0.003,105.0,111.0,101.0,13.4,1505.3,327.3,-0.7,1.8,2470.17,13.33,0.022,341.6
2019-07-21T00:33:52,42.805,6.029,-0.01,0.025,-0.01,103.0,112.0,100.0,13.4,1505.3,324.5,-0.7,1.9,2470.174,13.33,0.026,338.2
2019-07-21T00:36:53,42.805,6.029,-0.017,0.017,-0.019,104.0,114.0,100.0,13.4,1505.3,323.5,-0.7,1.8,2470.133,13.33,0.024,315.0
2019-07-21T00:39:54,42.805,6.029,-0.017,0.022,-0.031,105.0,112.0,101.0,13.4,1505.3,325.4,-0.7,1.8,2470.158,13.33,0.027,322.3
2019-07-21T00:42:55,42.805,6.029,0.013,0.012,0.014,104.0,113.0,101.0,13.4,1505.3,324.6,-0.7,1.8,2470.209,13.33,0.017,47.3
2019-07-21T00:45:56,42.805,6.029,-0.03,0.021,-0.02,105.0,114.0,99.0,13.4,1505.3,327.0,-0.7,1.9,2470.133,13.33,0.036,305.0
2019-07-21T00:48:57,42.805,6.029,-0.024,0.007,-0.015,105.0,111.0,101.0,13.4,1505.3,323.4,-0.7,1.8,2470.159,13.33,0.025,286.3
2019-07-21T00:51:58,42.805,6.029,-0.012,0.003,-0.027,104.0,113.0,101.0,13.3,1505.3,325.7,-0.7,1.8,2470.179,13.33,0.012,284.0
2019-07-21T00:54:59,42.805,6.029,0.001,0.018,-0.011,106.0,110.0,100.0,13.4,1505.3,327.4,-0.7,1.8,2470.122,13.33,0.018,3.2
2019-07-21T00:58:00,42.805,6.029,-0.008,0.011,-0.009,105.0,112.0,101.0,13.4,1505.3,323.9,-0.7,1.8,2470.128,13.33,0.013,324.0
2019-07-21T01:01:01,42.805,6.029,-0.038,0.026,-0.042,105.0,110.0,101.0,13.3,1505.3,326.1,-0.7,1.8,2470.149,13.33,0.046,304.4
2019-07-21T01:04:02,42.805,6.029,-0.031,0.026,-0.02,104.0,109.0,100.0,13.4,1505.3,322.9,-0.7,1.9,2470.174,13.33,0.04,310.0
2019-07-21T01:07:03,42.805,6.029,0.007,0.03,0.008,105.0,111.0,99.0,13.4,1505.3,328.4,-0.7,1.8,2470.132,13.33,0.03,13.1
2019-07-21T01:10:04,42.805,6.029,0.001,0.02,-0.022,105.0,114.0,100.0,13.4,1505.3,325.3,-0.7,1.9,2470.11,13.33,0.02,2.9
2019-07-21T01:13:05,42.805,6.029,-0.018,0.023,-0.015,103.0,112.0,100.0,13.3,1505.3,326.6,-0.7,1.8,2470.164,13.33,0.029,322.0
2019-07-21T01:16:06,42.805,6.029,0.001,0.005,-0.034,104.0,112.0,100.0,13.3,1505.3,322.9,-0.7,1.9,2470.131,13.33,0.005,11.3
2019-07-21T01:19:07,42.805,6.029,-0.022,0.016,-0.009,104.0,113.0,99.0,13.4,1505.3,325.8,-0.7,1.8,2470.146,13.33,0.027,306.0
2019-07-21T01:22:08,42.805,6.029,-0.022,0.025,-0.028,105.0,113.0,100.0,13.4,1505.3,326.6,-0.7,1.8,2470.186,13.33,0.033,318.7
2019-07-21T01:25:09,42.805,6.029,-0.017,0.022,0.002,103.0,113.0,99.0,13.4,1505.3,327.2,-0.7,1.8,2470.182,13.33,0.027,322.3
2019-07-21T01:28:10,42.805,6.029,-0.011,0.005,0.0,106.0,113.0,100.0,13.4,1505.3,326.7,-0.7,1.9,2470.135,13.33,0.012,294.4
2019-07-21T01:31:11,42.805,6.029,-0.019,0.036,-0.022,105.0,112.0,99.0,13.4,1505.3,327.6,-0.7,1.8,2470.138,13.33,0.04,332.2
2019-07-21T01:34:12,42.805,6.029,-0.012,0.029,-0.038,104.0,113.0,99.0,13.3,1505.3,325.9,-0.8,1.8,2470.138,13.33,0.031,337.5
2019-07-21T01:37:13,42.805,6.029,-0.046,0.03,-0.008,105.0,113.0,102.0,13.3,1505.3,327.7,-0.7,1.8,2470.125,13.33,0.054,303.1
2019-07-21T01:40:14,42.805,6.029,-0.018,0.024,-0.003,105.0,111.0,103.0,13.4,1505.3,326.4,-0.7,1.8,2470.164,13.33,0.03,323.1
2019-07-21T01:43:15,42.805,6.029,-0.015,0.008,-0.015,105.0,114.0,100.0,13.3,1505.3,324.5,-0.7,1.8,2470.151,13.33,0.017,298.1
2019-07-21T01:46:16,42.805,6.029,-0.022,0.016,0.005,103.0,112.0,101.0,13.3,1505.3,323.0,-0.7,1.9,2470.126,13.33,0.027,306.0
2019-07-21T01:49:17,42.805,6.029,-0.01,0.026,-0.019,105.0,111.0,100.0,13.4,1505.3,327.8,-0.7,1.8,2470.131,13.33,0.027,339.0
2019-07-21T01:52:18,42.805,6.029,-0.018,0.03,0.003,106.0,111.0,101.0,13.3,1505.3,324.5,-0.7,1.8,2470.089,13.33,0.034,329.0
2019-07-21T01:55:19,42.805,6.029,-0.033,0.001,-0.003,106.0,113.0,100.0,13.4,1505.3,327.4,-0.7,1.8,2470.123,13.33,0.033,271.7
2019-07-21T01:58:20,42.805,6.029,-0.007,0.013,0.005,104.0,112.0,101.0,13.4,1505.3,327.4,-0.7,1.8,2470.155,13.33,0.014,331.7
2019-07-21T02:01:21,42.805,6.029,0.0,0.019,-0.003,105.0,112.0,101.0,13.4,1505.3,325.6,-0.7,1.8,2470.129,13.33,0.019,0.0
2019-07-21T02:04:22,42.805,6.029,0.001,0.007,0.021,105.0,112.0,102.0,13.4,1505.4,324.3,-0.7,1.8,2470.098,13.34,0.007,8.1
2019-07-21T02:07:23,42.805,6.029,-0.026,0.005,-0.001,105.0,113.0,101.0,13.4,1505.4,326.7,-0.7,1.9,2470.117,13.34,0.026,280.9
2019-07-21T02:10:24,42.805,6.029,-0.031,0.028,-0.016,103.0,113.0,100.0,13.3,1505.4,327.5,-0.7,1.8,2470.096,13.34,0.041,312.1
2019-07-21T02:13:25,42.805,6.029,-0.023,0.017,-0.06,107.0,115.0,101.0,13.4,1505.4,325.9,-0.7,1.9,2470.077,13.34,0.028,306.5
2019-07-21T02:16:26,42.805,6.029,-0.016,0.028,-0.02,104.0,113.0,100.0,13.3,1505.4,324.1,-0.7,1.9,2470.135,13.34,0.032,330.3
2019-07-21T02:19:27,42.805,6.029,-0.013,0.004,0.014,105.0,113.0,100.0,13.3,1505.4,326.0,-0.7,1.8,2470.122,13.34,0.013,287.1
2019-07-21T02:22:28,42.805,6.029,0.018,0.019,0.008,105.0,110.0,101.0,13.4,1505.4,327.1,-0.7,1.8,2470.084,13.34,0.026,43.5
2019-07-21T02:25:29,42.805,6.029,0.0,0.018,-0.019,105.0,112.0,101.0,13.4,1505.4,323.1,-0.7,1.8,2470.067,13.34,0.018,0.0
2019-07-21T02:28:30,42.805,6.029,-0.009,0.029,-0.009,104.0,113.0,101.0,13.4,1505.4,324.6,-0.7,1.9,2470.113,13.34,0.03,342.8
2019-07-21T02:31:31,42.805,6.029,-0.032,0.027,-0.029,106.0,112.0,100.0,13.4,1505.3,325.2,-0.7,1.8,2470.131,13.33,0.041,310.2
2019-07-21T02:34:32,42.805,6.029,-0.015,0.03,-0.013,106.0,113.0,101.0,13.3,1505.3,325.2,-0.7,1.9,2470.071,13.33,0.033,333.4
2019-07-21T02:37:33,42.805,6.029,-0.019,0.04,-0.002,104.0,114.0,101.0,13.4,1505.3,325.9,-0.7,1.8,2470.129,13.33,0.044,334.6
2019-07-21T02:40:34,42.805,6.029,-0.024,0.019,0.015,104.0,113.0,102.0,13.3,1505.3,325.2,-0.7,1.8,2470.087,13.33,0.03,308.4
2019-07-21T02:43:35,42.805,6.029,-0.009,0.013,-0.022,103.0,113.0,101.0,13.4,1505.3,323.0,-0.7,1.8,2470.077,13.33,0.015,325.3
2019-07-21T02:46:36,42.805,6.029,-0.003,0.005,-0.021,104.0,114.0,102.0,13.4,1505.3,323.5,-0.7,1.9,2470.081,13.33,0.005,329.0
2019-07-21T02:49:37,42.805,6.029,-0.019,0.017,0.033,105.0,113.0,103.0,13.4,1505.4,326.0,-0.8,1.8,2470.119,13.34,0.025,311.8
2019-07-21T02:52:38,42.805,6.029,-0.042,0.025,-0.047,104.0,114.0,103.0,13.4,1505.4,326.9,-0.7,1.8,2470.125,13.34,0.048,300.8
2019-07-21T02:55:39,42.805,6.029,-0.018,0.022,-0.012,105.0,113.0,100.0,13.4,1505.3,326.4,-0.7,1.9,2470.07,13.33,0.028,320.7
2019-07-21T02:58:40,42.805,6.029,0.005,0.015,0.004,104.0,112.0,101.0,13.4,1505.3,323.2,-0.7,1.8,2470.125,13.33,0.015,18.4
2019-07-21T03:01:41,42.805,6.029,0.0,-0.004,-0.029,104.0,113.0,101.0,13.4,1505.3,328.3,-0.7,1.8,2470.125,13.33,0.004,180.0
2019-07-21T03:04:42,42.805,6.029,0.0,0.017,-0.006,105.0,112.0,101.0,13.4,1505.3,325.7,-0.8,1.8,2470.087,13.33,0.017,0.0
2019-07-21T03:07:43,42.805,6.029,-0.009,0.035,-0.002,106.0,113.0,102.0,13.4,1505.4,324.0,-0.7,1.8,2470.063,13.34,0.036,345.6
2019-07-21T03:10:44,42.805,6.029,0.004,0.033,-0.019,105.0,114.0,99.0,13.4,1505.3,324.5,-0.8,1.8,2470.061,13.33,0.033,6.9
2019-07-21T03:13:45,42.805,6.029,-0.02,0.018,-0.031,105.0,114.0,99.0,13.4,1505.4,325.7,-0.7,1.8,2470.051,13.34,0.026,312.0
2019-07-21T03:16:46,42.805,6.029,0.013,0.007,-0.03,106.0,114.0,101.0,13.4,1505.4,324.4,-0.7,1.8,2470.07,13.34,0.014,61.7
2019-07-21T03:19:47,42.805,6.029,0.0,0.015,0.012,103.0,113.0,101.0,13.3,1505.3,327.2,-0.7,1.9,2470.079,13.33,0.015,0.0
2019-07-21T03:22:48,42.805,6.029,-0.01,0.048,-0.002,104.0,113.0,99.0,13.3,1505.4,324.7,-0.7,1.9,2470.063,13.34,0.049,348.2
2019-07-21T03:25:49,42.805,6.029,-0.025,0.029,-0.005,104.0,115.0,99.0,13.4,1505.3,326.2,-0.7,1.8,2470.092,13.33,0.038,319.2
2019-07-21T03:28:50,42.805,6.029,0.022,0.038,0.01,105.0,112.0,99.0,13.3,1505.4,324.1,-0.7,1.8,2470.084,13.34,0.043,30.1
2019-07-21T03:31:51,42.805,6.029,-0.024,0.038,-0.028,103.0,112.0,100.0,13.4,1505.4,324.9,-0.7,1.9,2470.065,13.34,0.044,327.7
2019-07-21T03:34:52,42.805,6.029,0.003,0.006,0.004,103.0,113.0,99.0,13.4,1505.3,324.7,-0.7,1.8,2470.048,13.33,0.006,26.6
2019-07-21T03:37:53,42.805,6.029,-0.014,0.001,-0.016,102.0,114.0,100.0,13.3,1505.3,324.0,-0.7,1.8,2470.049,13.33,0.014,274.1
2019-07-21T03:40:54,42.805,6.029,-0.031,0.019,-0.021,103.0,114.0,99.0,13.3,1505.3,326.8,-0.7,1.8,2470.092,13.33,0.036,301.5
2019-07-21T03:43:55,42.805,6.029,-0.011,0.013,-0.039,103.0,113.0,101.0,13.3,1505.3,323.1,-0.7,1.8,2470.061,13.33,0.017,319.8
2019-07-21T03:46:56,42.805,6.029,0.009,0.037,0.016,101.0,113.0,100.0,13.4,1505.3,328.5,-0.7,1.9,2470.066,13.33,0.038,13.7
2019-07-21T03:49:57,42.805,6.029,0.005,0.026,-0.004,102.0,115.0,99.0,13.3,1505.3,325.9,-0.7,1.9,2470.076,13.33,0.026,10.9
2019-07-21T03:52:58,42.805,6.029,0.01,0.011,0.002,103.0,112.0,99.0,13.3,1505.3,323.2,-0.7,1.8,2470.066,13.33,0.014,42.3
2019-07-21T03:55:59,42.805,6.029,-0.008,0.021,-0.011,104.0,112.0,99.0,13.4,1505.3,324.3,-0.7,1.8,2470.086,13.33,0.022,339.1
2019-07-21T03:59:00,42.805,6.029,-0.019,0.031,-0.031,104.0,113.0,100.0,13.3,1505.3,327.6,-0.7,1.8,2470.044,13.33,0.036,328.5
2019-07-21T04:02:01,42.805,6.029,-0.007,0.022,0.004,105.0,111.0,101.0,13.4,1505.3,325.5,-0.7,1.8,2470.061,13.33,0.023,342.4
2019-07-21T04:05:02,42.805,6.029,0.012,0.022,-0.019,103.0,113.0,102.0,13.4,1505.3,326.5,-0.7,1.8,2470.052,13.33,0.025,28.6
2019-07-21T04:08:03,42.805,6.029,0.0,0.028,0.003,104.0,112.0,100.0,13.3,1505.3,324.4,-0.8,1.8,2470.003,13.33,0.028,0.0
2019-07-21T04:11:04,42.805,6.029,-0.026,0.031,-0.039,104.0,114.0,101.0,13.4,1505.4,325.9,-0.7,1.8,2470.088,13.34,0.04,320.0
2019-07-21T04:14:05,42.805,6.029,-0.013,0.002,-0.019,105.0,114.0,99.0,13.4,1505.4,325.3,-0.7,1.8,2470.065,13.34,0.013,278.7
2019-07-21T04:17:06,42.805,6.029,-0.011,0.009,-0.024,104.0,113.0,101.0,13.4,1505.4,326.7,-0.7,1.8,2470.05,13.34,0.014,309.3
2019-07-21T04:20:07,42.805,6.029,-0.018,-0.002,-0.038,105.0,114.0,100.0,13.4,1505.4,326.9,-0.7,1.8,2470.059,13.34,0.018,263.7
2019-07-21T04:23:08,42.805,6.029,0.003,0.021,-0.006,105.0,112.0,99.0,13.3,1505.4,328.3,-0.7,1.8,2470.058,13.34,0.021,8.1
2019-07-21T04:26:09,42.805,6.029,-0.026,0.009,-0.027,103.0,113.0,99.0,13.4,1505.4,325.0,-0.7,1.8,2470.096,13.34,0.027,289.1
2019-07-21T04:29:10,42.805,6.029,-0.007,0.019,-0.043,105.0,112.0,101.0,13.4,1505.4,328.1,-0.7,1.8,2470.048,13.34,0.02,339.8
2019-07-21T04:32:11,42.805,6.029,-0.011,0.029,-0.028,105.0,113.0,100.0,13.3,1505.4,324.8,-0.7,1.8,2470.019,13.34,0.031,339.2
2019-07-21T04:35:12,42.805,6.029,-0.001,0.009,-0.002,105.0,113.0,100.0,13.4,1505.4,326.7,-0.7,1.8,2470.052,13.34,0.009,353.7
2019-07-21T04:38:13,42.805,6.029,-0.011,0.017,0.0,104.0,113.0,101.0,13.3,1505.4,326.9,-0.7,1.9,2470.045,13.34,0.02,327.1
2019-07-21T04:41:14,42.805,6.029,-0.013,0.009,-0.03,105.0,112.0,100.0,13.3,1505.4,323.1,-0.7,1.8,2470.05,13.34,0.015,304.7
2019-07-21T04:44:15,42.805,6.029,-0.013,0.026,-0.032,105.0,113.0,99.0,13.4,1505.4,328.0,-0.7,1.8,2470.074,13.34,0.029,333.4
2019-07-21T04:47:16,42.805,6.029,0.004,0.017,-0.014,105.0,112.0,100.0,13.4,1505.4,324.8,-0.7,1.8,2470.037,13.34,0.017,13.2
2019-07-21T04:50:17,42.805,6.029,-0.029,0.017,-0.04,104.0,113.0,101.0,13.3,1505.4,326.0,-0.7,1.8,2470.025,13.34,0.033,300.4
2019-07-21T04:53:18,42.805,6.029,-0.009,-0.011,0.016,106.0,113.0,100.0,13.4,1505.4,323.5,-0.7,1.8,2470.017,13.34,0.014,219.3
2019-07-21T04:56:19,42.805,6.029,-0.012,0.023,-0.015,103.0,113.0,101.0,13.4,1505.4,323.9,-0.7,1.8,2470.063,13.34,0.025,332.4
2019-07-21T04:59:20,42.805,6.029,-0.015,0.006,0.014,104.0,113.0,102.0,13.4,1505.4,324.9,-0.7,1.9,2470.091,13.34,0.016,291.8
2019-07-21T05:02:21,42.805,6.029,0.001,0.016,-0.031,104.0,113.0,101.0,13.4,1505.4,327.9,-0.7,1.8,2470.061,13.34,0.016,3.6
2019-07-21T05:05:22,42.805,6.029,-0.039,0.01,-0.023,105.0,113.0,100.0,13.4,1505.4,325.1,-0.7,1.8,2470.046,13.34,0.04,284.4
2019-07-21T05:08:23,42.805,6.029,-0.007,0.015,-0.026,103.0,113.0,100.0,13.4,1505.4,326.9,-0.7,1.8,2470.066,13.34,0.016,335.0
2019-07-21T05:11:24,42.805,6.029,-0.007,0.017,-0.02,105.0,113.0,101.0,13.3,1505.4,323.6,-0.7,1.8,2470.04,13.34,0.018,337.6
2019-07-21T05:14:25,42.805,6.029,-0.011,0.024,-0.001,103.0,112.0,100.0,13.4,1505.4,327.8,-0.7,1.8,2470.07,13.34,0.026,335.4
2019-07-21T05:17:26,42.805,6.029,-0.012,0.0,-0.014,105.0,114.0,102.0,13.4,1505.4,327.8,-0.7,1.9,2470.064,13.34,0.012,270.0
2019-07-21T05:20:27,42.805,6.029,0.022,0.015,-0.003,106.0,112.0,100.0,13.4,1505.4,326.3,-0.7,1.8,2470.026,13.34,0.026,55.7
2019-07-21T05:23:28,42.805,6.029,-0.003,-0.008,-0.007,104.0,112.0,99.0,13.4,1505.4,325.4,-0.7,1.9,2470.087,13.34,0.008,200.6
2019-07-21T05:26:29,42.805,6.029,-0.042,0.014,-0.01,105.0,113.0,101.0,13.3,1505.4,325.4,-0.7,1.8,2470.098,13.34,0.044,288.4
2019-07-21T05:29:30,42.805,6.029,-0.015,0.024,-0.007,104.0,113.0,100.0,13.4,1505.4,327.2,-0.7,1.8,2470.043,13.34,0.028,328.0
2019-07-21T05:32:31,42.805,6.029,0.005,0.018,-0.029,105.0,112.0,100.0,13.4,1505.4,323.5,-0.7,1.9,2470.033,13.34,0.018,15.5
2019-07-21T05:35:32,42.805,6.029,-0.007,0.024,-0.01,105.0,112.0,99.0,13.4,1505.4,327.5,-0.7,1.8,2470.048,13.34,0.025,343.7
2019-07-21T05:38:33,42.805,6.029,0.002,0.003,-0.02,105.0,111.0,100.0,13.4,1505.4,324.8,-0.7,1.8,2470.068,13.34,0.003,33.7
2019-07-21T05:41:34,42.805,6.029,-0.009,0.01,-0.01,106.0,112.0,100.0,13.3,1505.4,326.2,-0.7,1.8,2470.107,13.34,0.013,318.0
2019-07-21T05:44:35,42.805,6.029,-0.013,0.017,-0.009,104.0,112.0,101.0,13.4,1505.4,323.2,-0.7,1.8,2470.052,13.34,0.021,322.6
2019-07-21T05:47:36,42.805,6.029,-0.011,0.011,-0.014,105.0,113.0,101.0,13.3,1505.4,324.7,-0.7,1.8,2470.12,13.34,0.015,315.0
2019-07-21T05:50:37,42.805,6.029,0.005,0.0,-0.046,104.0,112.0,100.0,13.4,1505.4,327.3,-0.7,1.8,2470.044,13.34,0.005,90.0
2019-07-21T05:53:38,42.805,6.029,0.006,0.011,0.008,104.0,114.0,100.0,13.3,1505.4,326.5,-0.7,1.8,2470.043,13.34,0.012,28.6
2019-07-21T05:56:39,42.805,6.029,-0.016,0.017,-0.01,104.0,114.0,101.0,13.4,1505.4,323.5,-0.7,1.8,2470.074,13.34,0.023,316.7
2019-07-21T05:59:40,42.805,6.029,-0.007,0.037,-0.002,105.0,114.0,100.0,13.4,1505.4,325.1,-0.7,1.8,2470.06,13.34,0.037,349.3
2019-07-21T06:02:41,42.805,6.029,0.007,0.018,-0.023,105.0,113.0,100.0,13.3,1505.4,325.7,-0.7,1.8,2470.101,13.34,0.019,21.2
2019-07-21T06:05:42,42.805,6.029,0.008,0.013,-0.02,105.0,113.0,102.0,13.4,1505.4,326.2,-0.7,1.8,2470.048,13.34,0.015,31.6
2019-07-21T06:08:43,42.805,6.029,-0.015,0.016,-0.006,106.0,114.0,101.0,13.4,1505.4,322.7,-0.7,1.8,2470.058,13.34,0.021,316.9
2019-07-21T06:11:44,42.805,6.029,-0.007,0.011,-0.038,104.0,111.0,101.0,13.4,1505.4,327.6,-0.8,1.8,2470.069,13.34,0.013,327.5
2019-07-21T06:14:45,42.805,6.029,-0.02,0.027,0.008,104.0,112.0,100.0,13.4,1505.4,324.6,-0.7,1.9,2470.045,13.34,0.033,323.5
2019-07-21T06:17:46,42.805,6.029,-0.012,0.013,-0.021,104.0,111.0,101.0,13.4,1505.4,326.5,-0.7,1.8,2470.064,13.34,0.017,317.3
2019-07-21T06:20:47,42.805,6.029,-0.023,0.008,-0.014,104.0,114.0,101.0,13.4,1505.4,327.1,-0.7,1.9,2470.067,13.34,0.024,289.2
2019-07-21T06:23:48,42.805,6.029,0.003,0.013,0.0,105.0,113.0,101.0,13.3,1505.4,325.1,-0.7,1.9,2470.082,13.34,0.013,13.0
2019-07-21T06:26:49,42.805,6.029,0.016,-0.013,0.013,105.0,113.0,100.0,13.3,1505.4,326.8,-0.7,1.8,2470.106,13.34,0.02,129.1
2019-07-21T06:29:50,42.805,6.029,-0.051,0.016,-0.061,104.0,114.0,102.0,13.4,1505.4,322.7,-0.7,1.8,2470.095,13.34,0.053,287.4
2019-07-21T06:32:51,42.805,6.029,-0.011,0.006,-0.024,105.0,112.0,101.0,13.4,1505.4,327.5,-0.7,1.8,2470.066,13.34,0.012,298.6
2019-07-21T06:35:52,42.805,6.029,0.002,0.016,0.001,105.0,112.0,101.0,13.4,1505.4,324.8,-0.7,1.8,2470.078,13.34,0.016,7.1
2019-07-21T06:38:53,42.805,6.029,-0.016,0.007,-0.033,105.0,111.0,99.0,13.4,1505.4,326.7,-0.7,1.9,2470.093,13.34,0.017,293.6
2019-07-21T06:41:54,42.805,6.029,-0.017,0.008,-0.016,104.0,113.0,100.0,13.4,1505.4,324.5,-0.7,1.9,2470.08,13.34,0.018,295.2
2019-07-21T06:44:55,42.805,6.029,-0.016,0.013,-0.014,105.0,112.0,100.0,13.4,1505.4,326.6,-0.7,1.8,2470.064,13.34,0.02,309.1
2019-07-21T06:47:56,42.805,6.029,-0.009,0.012,-0.027,105.0,111.0,101.0,13.4,1505.4,326.6,-0.7,1.9,2470.079,13.34,0.015,323.1
2019-07-21T06:50:57,42.805,6.029,-0.002,0.021,-0.035,105.0,111.0,99.0,13.4,1505.4,324.9,-0.7,1.8,2470.074,13.34,0.021,354.6
2019-07-21T06:53:58,42.805,6.029,-0.021,0.014,-0.004,105.0,111.0,101.0,13.4,1505.4,323.7,-0.7,1.8,2470.077,13.34,0.025,303.7
2019-07-21T06:56:59,42.805,6.029,-0.01,0.023,-0.009,104.0,113.0,100.0,13.3,1505.4,326.3,-0.7,1.8,2470.13,13.34,0.025,336.5
2019-07-21T07:00:00,42.805,6.029,0.008,-0.02,-0.009,105.0,113.0,101.0,13.4,1505.4,327.0,-0.7,1.9,2470.046,13.34,0.021,158.2
2019-07-21T07:03:01,42.805,6.029,0.009,-0.002,0.002,103.0,111.0,101.0,13.3,1505.4,325.0,-0.7,1.8,2470.099,13.34,0.009,102.5
2019-07-21T07:06:02,42.805,6.029,0.007,0.01,0.0,106.0,111.0,100.0,13.4,1505.4,325.9,-0.7,1.8,2470.112,13.34,0.012,35.0
2019-07-21T07:09:03,42.805,6.029,0.001,0.036,0.0,106.0,113.0,101.0,13.4,1505.4,326.8,-0.7,1.9,2470.135,13.34,0.036,1.6
2019-07-21T07:12:04,42.805,6.029,0.004,0.017,0.0,105.0,113.0,100.0,13.4,1505.4,326.9,-0.7,1.8,2470.076,13.34,0.017,13.2
2019-07-21T07:15:05,42.805,6.029,0.015,0.011,0.024,105.0,112.0,100.0,13.4,1505.4,326.2,-0.7,1.8,2470.116,13.34,0.018,53.7
2019-07-21T07:18:06,42.805,6.029,-0.002,0.008,-0.024,104.0,112.0,100.0,13.4,1505.4,324.0,-0.7,1.9,2470.103,13.34,0.008,346.0
2019-07-21T07:21:07,42.805,6.029,0.03,0.042,0.016,104.0,110.0,100.0,13.4,1505.4,325.5,-0.7,1.9,2470.107,13.34,0.051,35.5
2019-07-21T07:24:08,42.805,6.029,-0.001,0.007,-0.003,107.0,111.0,101.0,13.3,1505.4,324.9,-0.7,1.9,2470.09,13.34,0.007,351.9
2019-07-21T07:27:09,42.805,6.029,0.0,0.011,-0.008,104.0,112.0,101.0,13.3,1505.4,323.9,-0.8,1.8,2470.105,13.34,0.011,0.0
2019-07-21T07:30:10,42.805,6.029,-0.005,0.022,-0.018,105.0,111.0,101.0,13.4,1505.4,324.0,-0.7,1.8,2470.076,13.34,0.022,347.2
2019-07-21T07:33:11,42.805,6.029,0.003,0.006,0.023,105.0,112.0,101.0,13.4,1505.4,326.1,-0.7,1.8,2470.136,13.34,0.006,26.6
2019-07-21T07:36:12,42.805,6.029,-0.014,0.029,-0.025,105.0,112.0,100.0,13.3,1505.4,323.5,-0.7,1.9,2470.116,13.34,0.032,334.2
2019-07-21T07:39:13,42.805,6.029,-0.008,0.021,0.003,104.0,112.0,100.0,13.4,1505.4,323.7,-0.7,1.8,2470.11,13.34,0.022,339.1
2019-07-21T07:42:14,42.805,6.029,0.0,0.007,0.019,104.0,114.0,101.0,13.4,1505.4,327.6,-0.7,1.8,2470.174,13.34,0.007,0.0
2019-07-21T07:45:15,42.805,6.029,-0.004,0.014,0.009,106.0,113.0,101.0,13.4,1505.4,324.4,-0.8,1.8,2470.113,13.34,0.014,344.1
2019-07-21T07:48:16,42.805,6.029,-0.025,0.017,-0.005,105.0,112.0,102.0,13.3,1505.4,325.3,-0.7,1.8,2470.154,13.34,0.03,304.2
2019-07-21T07:51:17,42.805,6.029,-0.001,0.023,-0.003,105.0,112.0,100.0,13.4,1505.4,324.2,-0.7,1.8,2470.129,13.34,0.023,357.5
2019-07-21T07:54:18,42.805,6.029,-0.032,-0.001,-0.008,105.0,110.0,100.0,13.4,1505.4,325.9,-0.7,1.8,2470.128,13.34,0.032,268.2
2019-07-21T07:57:19,42.805,6.029,0.005,0.036,-0.005,107.0,111.0,101.0,13.4,1505.4,328.1,-0.7,1.8,2470.124,13.34,0.036,7.9
2019-07-21T08:00:20,42.805,6.029,-0.001,-0.019,0.003,106.0,112.0,101.0,13.4,1505.4,324.7,-0.7,1.9,2470.127,13.34,0.019,183.0
2019-07-21T08:03:21,42.805,6.029,0.003,0.021,0.027,105.0,111.0,100.0,13.4,1505.4,326.8,-0.7,1.8,2470.164,13.34,0.021,8.1
2019-07-21T08:06:22,42.805,6.029,-0.003,0.026,0.008,106.0,112.0,102.0,13.4,1505.4,324.7,-0.7,1.9,2470.14,13.34,0.026,353.4
2019-07-21T08:09:23,42.805,6.029,0.003,0.016,0.037,106.0,112.0,101.0,13.3,1505.4,327.9,-0.7,1.9,2470.13,13.34,0.016,10.6
2019-07-21T08:12:24,42.805,6.029,0.018,0.022,0.026,104.0,113.0,101.0,13.3,1505.4,324.9,-0.7,1.8,2470.21,13.34,0.028,39.3
2019-07-21T08:15:25,42.805,6.029,0.009,0.015,-0.023,105.0,113.0,100.0,13.4,1505.4,326.6,-0.7,1.8,2470.12,13.34,0.017,31.0
2019-07-21T08:18:26,42.805,6.029,0.014,0.003,0.018,106.0,112.0,101.0,13.3,1505.4,328.1,-0.7,1.8,2470.106,13.34,0.014,77.9
2019-07-21T08:21:27,42.805,6.029,-0.011,-0.003,0.004,105.0,112.0,100.0,13.4,1505.4,325.3,-0.7,1.8,2470.14,13.34,0.011,254.7
2019-07-21T08:24:28,42.805,6.029,-0.002,0.0,0.009,105.0,112.0,102.0,13.4,1505.4,326.0,-0.7,1.8,2470.113,13.34,0.002,270.0
2019-07-21T08:27:29,42.805,6.029,-0.004,0.016,-0.027,105.0,111.0,102.0,13.4,1505.4,325.8,-0.7,1.8,2470.186,13.34,0.016,346.0
2019-07-21T08:30:30,42.805,6.029,-0.005,0.012,-0.023,105.0,108.0,101.0,13.4,1505.4,326.8,-0.7,1.8,2470.161,13.34,0.013,337.4
2019-07-21T08:33:31,42.805,6.029,0.002,0.004,-0.026,104.0,111.0,99.0,13.4,1505.4,323.5,-0.7,1.9,2470.137,13.34,0.004,26.6
2019-07-21T08:36:32,42.805,6.029,-0.015,0.041,0.004,104.0,108.0,99.0,13.3,1505.4,324.9,-0.8,1.8,2470.12,13.34,0.043,339.9
2019-07-21T08:39:33,42.805,6.029,-0.023,0.013,-0.012,106.0,108.0,100.0,13.4,1505.4,327.0,-0.7,1.8,2470.164,13.34,0.026,299.5
2019-07-21T08:42:34,42.805,6.029,-0.015,0.001,-0.034,104.0,109.0,100.0,13.4,1505.4,323.8,-0.7,1.8,2470.159,13.34,0.015,273.8
2019-07-21T08:45:35,42.805,6.029,-0.002,0.008,-0.01,104.0,110.0,101.0,13.3,1505.4,325.9,-0.8,1.8,2470.156,13.34,0.008,346.0
2019-07-21T08:48:36,42.805,6.029,-0.013,0.018,-0.034,103.0,112.0,100.0,13.4,1505.4,324.2,-0.7,1.8,2470.169,13.34,0.022,324.2
2019-07-21T08:51:37,42.805,6.029,-0.028,0.004,-0.044,105.0,112.0,99.0,13.3,1505.4,327.9,-0.7,1.9,2470.127,13.34,0.028,278.1
2019-07-21T08:54:38,42.805,6.029,-0.017,0.0,-0.027,105.0,111.0,101.0,13.4,1505.4,325.6,-0.7,1.8,2470.153,13.34,0.017,270.0
2019-07-21T08:57:39,42.805,6.029,-0.003,0.02,0.015,103.0,112.0,102.0,13.3,1505.4,326.3,-0.8,1.8,2470.171,13.34,0.02,351.5
2019-07-21T09:00:40,42.805,6.029,-0.007,0.016,0.009,104.0,110.0,101.0,13.3,1505.4,326.3,-0.7,1.8,2470.125,13.34,0.017,336.4
2019-07-21T09:03:41,42.805,6.029,0.012,0.035,-0.021,104.0,110.0,101.0,13.4,1505.4,323.8,-0.7,1.8,2470.141,13.34,0.037,18.9
2019-07-21T09:06:42,42.805,6.029,0.0,0.001,-0.001,104.0,111.0,100.0,13.4,1505.4,326.1,-0.7,1.8,2470.167,13.34,0.001,0.0
2019-07-21T09:09:43,42.805,6.029,-0.026,0.0,-0.012,103.0,112.0,100.0,13.4,1505.4,324.6,-0.7,1.8,2470.127,13.34,0.026,270.0
2019-07-21T09:12:44,42.805,6.029,-0.016,0.014,-0.015,105.0,111.0,100.0,13.4,1505.4,322.6,-0.7,1.8,2470.145,13.34,0.021,311.2
2019-07-21T09:15:45,42.805,6.029,-0.002,0.028,-0.019,106.0,111.0,101.0,13.4,1505.4,324.9,-0.7,1.8,2470.147,13.34,0.028,355.9
2019-07-21T09:18:46,42.805,6.029,-0.015,0.017,0.003,105.0,110.0,100.0,13.4,1505.4,325.9,-0.7,1.8,2470.161,13.34,0.022,318.6
2019-07-21T09:21:47,42.805,6.029,-0.004,0.024,0.0,105.0,111.0,100.0,13.4,1505.4,326.7,-0.7,1.8,2470.133,13.34,0.024,350.5
2019-07-21T09:24:48,42.805,6.029,-0.026,0.025,-0.023,105.0,111.0,101.0,13.4,1505.4,324.9,-0.8,1.8,2470.102,13.34,0.036,313.9
2019-07-21T09:27:49,42.805,6.029,0.011,0.025,-0.019,106.0,112.0,100.0,13.4,1505.4,324.7,-0.7,1.9,2470.157,13.34,0.027,23.7
2019-07-21T09:30:50,42.805,6.029,-0.011,0.004,-0.006,105.0,112.0,100.0,13.3,1505.4,327.0,-0.7,1.8,2470.127,13.34,0.011,290.0